{"data":{"norad_id":65284,"epoch":"2026-05-25T03:12:01.123776Z","epoch_age_seconds":67450,"freshness":"FRESH","line1":"1 65284U 25184M   26145.13334634  .00002827  00000+0  19985-3 0  9993","line2":"2 65284  97.4482 197.6480 0002465 117.7133 242.4344 15.05659325 42804","mean_motion":15.05659325,"eccentricity":0.0002465,"inclination_deg":97.4482,"raan_deg":197.648,"arg_perigee_deg":117.7133,"mean_anomaly_deg":242.4344,"bstar":0.00019985,"rev_number":4280,"period_min":95.639164589905,"perigee_km":547.77489245449,"apogee_km":551.19020889297,"semimajor_km":6927.6195506737,"source":"CELESTRAK","updated_at":"2026-05-25T13:38:20.731659Z"}}